TimeEST,TemperatureF,Dew PointF,Humidity,Sea Level PressureIn,VisibilityMPH,Wind Direction,Wind SpeedMPH,Gust SpeedMPH,PrecipitationIn,Events,Conditions,WindDirDegrees,DateUTC
12:53 AM,-9999,-9999,N/A,30.09,10.0,NE,4.6,-,N/A,,Clear,50,2013-11-22 05:53:00
1:53 AM,-9999,-9999,N/A,30.08,10.0,NE,6.9,-,N/A,,Clear,40,2013-11-22 06:53:00
2:53 AM,-9999,-9999,N/A,30.06,10.0,NE,4.6,-,N/A,,Clear,50,2013-11-22 07:53:00
3:53 AM,-9999,-9999,N/A,30.06,10.0,NE,3.5,-,N/A,,Clear,50,2013-11-22 08:53:00
4:53 AM,-9999,-9999,N/A,30.06,10.0,NE,3.5,-,N/A,,Clear,50,2013-11-22 09:53:00
5:53 AM,-9999,-9999,N/A,30.07,10.0,NE,5.8,-,N/A,,Partly Cloudy,40,2013-11-22 10:53:00
5:58 AM,77.0,71.6,83,30.07,10.0,NE,5.8,-,N/A,,Scattered Clouds,50,2013-11-22 10:58:00
6:53 AM,77.0,71.6,83,30.09,10.0,NE,5.8,-,N/A,,Scattered Clouds,40,2013-11-22 11:53:00
7:53 AM,77.0,71.6,83,30.09,10.0,ENE,3.5,-,N/A,,Scattered Clouds,60,2013-11-22 12:53:00
8:53 AM,78.8,71.6,78,30.10,10.0,NE,10.4,-,0.00,,Scattered Clouds,50,2013-11-22 13:53:00
9:53 AM,78.8,71.6,78,30.11,10.0,ENE,11.5,17.3,N/A,,Scattered Clouds,60,2013-11-22 14:53:00
10:28 AM,78.8,71.6,78,30.11,10.0,ENE,9.2,-,0.00,Rain,Light Rain,70,2013-11-22 15:28:00
10:53 AM,78.8,71.6,78,30.11,10.0,East,10.4,-,0.00,,Mostly Cloudy,100,2013-11-22 15:53:00
11:53 AM,78.8,71.6,78,30.09,10.0,NE,12.7,17.3,N/A,,Mostly Cloudy,50,2013-11-22 16:53:00
12:53 PM,77.0,71.6,83,30.05,10.0,NE,8.1,-,N/A,,Mostly Cloudy,50,2013-11-22 17:53:00
1:53 PM,77.0,71.6,83,30.04,10.0,NNE,9.2,-,N/A,,Mostly Cloudy,30,2013-11-22 18:53:00
2:53 PM,78.8,69.8,74,30.03,10.0,ENE,12.7,-,N/A,,Mostly Cloudy,70,2013-11-22 19:53:00
3:53 PM,78.4,70.9,77,30.03,10.0,ENE,11.5,-,N/A,,Mostly Cloudy,70,2013-11-22 20:53:00
4:53 PM,79.2,70.3,74,30.03,10.0,ENE,10.4,-,N/A,,Mostly Cloudy,60,2013-11-22 21:53:00
5:53 PM,77.2,70.0,78,30.04,10.0,NE,13.8,18.4,N/A,,Mostly Cloudy,50,2013-11-22 22:53:00
6:53 PM,76.5,69.1,78,30.05,10.0,NE,9.2,-,N/A,,Scattered Clouds,50,2013-11-22 23:53:00
7:33 PM,77.0,69.8,78,30.05,5.0,ENE,9.2,-,0.06,Rain,Light Rain,60,2013-11-23 00:33:00
7:38 PM,75.2,69.8,83,30.05,7.0,ENE,9.2,-,0.06,,Mostly Cloudy,60,2013-11-23 00:38:00
7:53 PM,74.7,69.1,83,30.05,10.0,NE,8.1,-,0.06,,Mostly Cloudy,50,2013-11-23 00:53:00
8:43 PM,75.2,69.8,83,30.06,2.0,ENE,15.0,23.0,0.13,Rain,Light Rain,60,2013-11-23 01:43:00
8:50 PM,75.2,69.8,83,30.06,1.2,NE,10.4,23.0,0.28,Rain,Light Rain,50,2013-11-23 01:50:00
8:53 PM,74.7,70.0,85,30.06,1.2,NE,8.1,20.7,0.32,Rain,Heavy Rain,50,2013-11-23 01:53:00
9:02 PM,75.2,69.8,83,30.07,3.0,NE,9.2,-,0.03,Rain,Light Rain,50,2013-11-23 02:02:00
9:17 PM,75.2,69.8,83,30.07,9.0,NE,9.2,20.7,0.04,,Mostly Cloudy,50,2013-11-23 02:17:00
9:53 PM,74.7,70.0,85,30.07,10.0,ENE,9.2,-,0.04,,Mostly Cloudy,60,2013-11-23 02:53:00
10:53 PM,75.2,69.8,83,30.06,10.0,NE,5.8,-,N/A,,Partly Cloudy,50,2013-11-23 03:53:00
11:53 PM,-9999,-9999,N/A,30.05,10.0,NE,6.9,-,N/A,,Partly Cloudy,50,2013-11-23 04:53:00